Location: ???????
(55.4362°N, 38.1183°E)
Time: 06:58:49
(UTC+00:00)

Cosmos 1953 Rocket - Visible Passes

Search period start: 24 October 2021 00:00
Search period end: 03 November 2021 00:00
Orbit: 605 x 633 km, 82.5° (Epoch: 23 October)

Date Brightness Start Highest point End Pass type
(mag) Time Alt. Az. Time Alt. Az. Time Alt. Az.
24 Oct 5.2 15:06:16 10° NNE 15:09:08 16° ENE 15:11:02 13° E visible
24 Oct 3.5 16:43:12 10° NNW 16:47:44 88° ENE 16:48:13 71° SSE visible
24 Oct 6.3 18:22:24 10° NW 18:24:57 15° W 18:25:24 15° W visible
25 Oct 4.7 15:23:15 10° N 15:26:55 24° ENE 15:28:52 18° E visible
25 Oct 4.1 17:00:44 10° NNW 17:05:10 57° W 17:06:03 47° SW visible
26 Oct 4.2 15:40:26 10° N 15:44:37 36° ENE 15:46:48 23° ESE visible
26 Oct 5.1 17:18:24 10° NNW 17:22:30 35° W 17:24:00 27° SW visible
27 Oct 3.6 15:57:45 10° N 16:02:13 57° ENE 16:04:56 22° SE visible
27 Oct 5.9 17:36:15 10° NW 17:39:45 22° W 17:42:09 15° SW visible
28 Oct 5.1 14:38:12 10° NNE 14:41:09 17° ENE 14:44:04 10° E visible
28 Oct 3.5 16:15:12 10° NNW 16:19:43 88° W 16:23:20 16° S visible
28 Oct 6.5 17:54:30 10° NW 17:56:54 14° W 17:59:17 10° WSW visible
29 Oct 4.6 14:55:12 10° N 14:58:56 25° ENE 15:02:37 10° ESE visible
29 Oct 4.3 16:32:44 10° NNW 16:37:08 54° W 16:41:28 10° S visible
30 Oct 7.2 03:38:09 10° E 03:38:46 10° ENE 03:39:22 10° ENE visible
30 Oct 4.1 15:12:24 10° N 15:16:37 37° ENE 15:20:46 10° SE visible
30 Oct 5.2 16:50:25 10° NNW 16:54:28 33° W 16:58:27 10° SSW visible
31 Oct 3.6 15:29:44 10° N 15:34:12 60° ENE 15:38:36 10° SSE visible
31 Oct 6.1 17:08:18 10° NW 17:11:41 21° W 17:15:03 10° SW visible
01 Nov 3.6 15:47:11 10° NNW 15:51:42 85° WSW 15:56:08 10° S visible
01 Nov 6.7 17:26:37 10° NW 17:28:50 14° W 17:31:02 10° WSW visible
02 Nov 4.6 14:27:09 10° N 14:30:56 26° ENE 14:34:39 10° ESE visible
02 Nov 4.4 16:04:44 10° NNW 16:09:06 52° W 16:13:24 10° S visible
